When you browse on this site, cookies collect data to enhance your experience and personalize the content and advertising you see.
Visit our Privacy Policy to learn more. By continuing to use the site, you agree to this use of cookies and data.
  • In Netherlands
  • List of Countries
  • For 7 days
  • Water Temperature
  • Satellite Maps
  • Weather Map
  • Weather Widgets
  • user-avatar
    Login

    Hourly Weather Brzeziny

    Today, 26 June, Wednesday

    Time Temperature Precipitation Wind Pressure Humidity
    00:00 +24°C° 0 mm 3 mps 750 mmHg 88%
    01:00 +23°C° 0 mm 4 mps 749 mmHg 87%
    02:00 +22°C° 0 mm 4 mps 749 mmHg 88%
    03:00 +22°C° 0 mm 3 mps 749 mmHg 89%
    04:00 +22°C° 0 mm 3 mps 748 mmHg 90%
    05:00 +25°C° 0 mm 3 mps 749 mmHg 85%
    06:00 +26°C° 0 mm 3 mps 749 mmHg 79%
    07:00 +28°C° 0 mm 3 mps 749 mmHg 73%
    08:00 +29°C° 0 mm 4 mps 748 mmHg 66%
    09:00 +32°C° 0 mm 4 mps 748 mmHg 58%
    10:00 +33°C° 0 mm 5 mps 748 mmHg 51%
    11:00 +34°C° 0 mm 5 mps 748 mmHg 49%
    12:00 +34°C° 0 mm 5 mps 747 mmHg 46%
    13:00 +35°C° 0 mm 5 mps 747 mmHg 44%
    14:00 +35°C° 0 mm 5 mps 747 mmHg 46%
    15:00 +35°C° 0 mm 5 mps 746 mmHg 48%
    16:00 +34°C° 0 mm 5 mps 745 mmHg 50%
    17:00 +33°C° 0 mm 4 mps 745 mmHg 56%
    18:00 +31°C° 0 mm 3 mps 745 mmHg 61%
    19:00 +30°C° 0 mm 3 mps 744 mmHg 67%
    20:00 +29°C° 0.2 mm 3 mps 744 mmHg 68%
    21:00 +28°C° 0.2 mm 4 mps 744 mmHg 68%
    22:00 +27°C° 0.2 mm 4 mps 744 mmHg 69%
    23:00 +26°C° 0.5 mm 5 mps 744 mmHg 76%

    Tomorrow, 27 June, Thursday

    Time Temperature Precipitation Wind Pressure Humidity
    00:00 +25°C° 0.5 mm 5 mps 744 mmHg 83%
    01:00 +23°C° 0.5 mm 5 mps 744 mmHg 90%
    02:00 +22°C° 0 mm 5 mps 744 mmHg 90%
    03:00 +21°C° 0 mm 5 mps 744 mmHg 91%
    04:00 +20°C° 0 mm 6 mps 744 mmHg 92%
    05:00 +20°C° 0 mm 6 mps 744 mmHg 88%
    06:00 +20°C° 0 mm 6 mps 744 mmHg 85%
    07:00 +20°C° 0 mm 7 mps 744 mmHg 82%
    08:00 +20°C° 0 mm 7 mps 744 mmHg 77%
    09:00 +20°C° 0 mm 7 mps 745 mmHg 73%
    10:00 +18°C° 0 mm 7 mps 745 mmHg 68%
    11:00 +20°C° 0 mm 7 mps 745 mmHg 64%
    12:00 +21°C° 0 mm 8 mps 745 mmHg 60%
    13:00 +22°C° 0 mm 8 mps 745 mmHg 55%
    14:00 +22°C° 0 mm 7 mps 744 mmHg 58%
    15:00 +22°C° 0 mm 7 mps 744 mmHg 60%
    16:00 +21°C° 0 mm 7 mps 744 mmHg 63%
    17:00 +21°C° 0.1 mm 7 mps 744 mmHg 67%
    18:00 +20°C° 0.1 mm 6 mps 744 mmHg 72%
    19:00 +19°C° 0.1 mm 6 mps 744 mmHg 77%
    20:00 +17°C° 0.1 mm 5 mps 745 mmHg 81%
    21:00 +16°C° 0.1 mm 5 mps 745 mmHg 85%
    22:00 +15°C° 0.1 mm 4 mps 746 mmHg 90%
    23:00 +14°C° 0 mm 4 mps 746 mmHg 92%

    Day after tomorrow, 28 June, Friday

    Time Temperature Precipitation Wind Pressure Humidity
    00:00 +13°C° 0 mm 3 mps 746 mmHg 93%
    01:00 +13°C° 0 mm 3 mps 746 mmHg 95%
    02:00 +12°C° 0 mm 3 mps 746 mmHg 94%
    03:00 +12°C° 0 mm 3 mps 746 mmHg 93%
    04:00 +12°C° 0 mm 2 mps 746 mmHg 92%
    05:00 +13°C° 0 mm 3 mps 746 mmHg 86%
    06:00 +14°C° 0 mm 3 mps 746 mmHg 80%
    07:00 +17°C° 0 mm 3 mps 747 mmHg 74%
    08:00 +18°C° 0 mm 4 mps 746 mmHg 66%
    09:00 +19°C° 0 mm 4 mps 746 mmHg 59%
    10:00 +21°C° 0 mm 4 mps 746 mmHg 51%
    11:00 +21°C° 0 mm 5 mps 746 mmHg 51%
    12:00 +22°C° 0 mm 5 mps 746 mmHg 50%
    13:00 +22°C° 0 mm 5 mps 746 mmHg 50%
    14:00 +22°C° 0 mm 6 mps 746 mmHg 50%
    15:00 +22°C° 0 mm 6 mps 746 mmHg 49%
    16:00 +22°C° 0 mm 6 mps 746 mmHg 49%
    17:00 +21°C° 0 mm 6 mps 746 mmHg 54%
    18:00 +19°C° 0 mm 5 mps 746 mmHg 59%
    19:00 +17°C° 0 mm 5 mps 746 mmHg 64%
    20:00 +17°C° 0 mm 4 mps 747 mmHg 63%
    21:00 +14°C° 0 mm 4 mps 747 mmHg 62%
    22:00 +13°C° 0 mm 4 mps 747 mmHg 60%
    23:00 +12°C° 0 mm 4 mps 747 mmHg 63%

    29 June, Saturday

    Time Temperature Precipitation Wind Pressure Humidity
    00:00 +12°C° 0 mm 3 mps 748 mmHg 65%
    01:00 +11°C° 0 mm 3 mps 748 mmHg 68%
    02:00 +11°C° 0 mm 3 mps 748 mmHg 70%
    03:00 +10°C° 0 mm 3 mps 748 mmHg 72%
    04:00 +10°C° 0 mm 3 mps 748 mmHg 74%
    05:00 +12°C° 0 mm 3 mps 748 mmHg 70%
    06:00 +13°C° 0 mm 3 mps 748 mmHg 66%
    07:00 +16°C° 0 mm 3 mps 748 mmHg 61%
    08:00 +18°C° 0 mm 3 mps 748 mmHg 58%
    09:00 +19°C° 0 mm 4 mps 748 mmHg 55%
    10:00 +21°C° 0 mm 4 mps 748 mmHg 52%
    11:00 +22°C° 0 mm 4 mps 748 mmHg 51%
    12:00 +23°C° 0 mm 5 mps 747 mmHg 50%
    13:00 +25°C° 0 mm 5 mps 747 mmHg 50%
    14:00 +25°C° 0 mm 5 mps 747 mmHg 50%
    15:00 +25°C° 0 mm 5 mps 746 mmHg 51%
    16:00 +25°C° 0 mm 5 mps 746 mmHg 51%
    17:00 +23°C° 0 mm 4 mps 746 mmHg 56%
    18:00 +22°C° 0 mm 3 mps 746 mmHg 60%
    19:00 +21°C° 0 mm 2 mps 746 mmHg 65%
    20:00 +20°C° 0 mm 2 mps 746 mmHg 64%
    21:00 +19°C° 0 mm 2 mps 746 mmHg 63%
    22:00 +18°C° 0 mm 2 mps 746 mmHg 62%
    23:00 +17°C° 0 mm 2 mps 746 mmHg 62%

    30 June, Sunday

    Time Temperature Precipitation Wind Pressure Humidity
    00:00 +17°C° 0 mm 3 mps 746 mmHg 62%
    01:00 +17°C° 0 mm 3 mps 746 mmHg 62%
    02:00 +16°C° 0 mm 3 mps 746 mmHg 64%
    03:00 +16°C° 0 mm 3 mps 746 mmHg 65%
    04:00 +16°C° 0 mm 3 mps 746 mmHg 67%
    05:00 +18°C° 0 mm 3 mps 746 mmHg 64%
    06:00 +19°C° 0 mm 3 mps 746 mmHg 62%
    07:00 +21°C° 0 mm 3 mps 746 mmHg 59%
    08:00 +24°C° 0 mm 3 mps 746 mmHg 54%
    09:00 +26°C° 0 mm 3 mps 746 mmHg 49%
    10:00 +28°C° 0 mm 3 mps 746 mmHg 43%
    11:00 +28°C° 0 mm 4 mps 745 mmHg 42%
    12:00 +29°C° 0 mm 4 mps 745 mmHg 40%
    13:00 +30°C° 0 mm 4 mps 745 mmHg 38%
    14:00 +30°C° 0 mm 4 mps 744 mmHg 39%
    15:00 +30°C° 0 mm 4 mps 744 mmHg 41%
    16:00 +30°C° 0 mm 5 mps 744 mmHg 42%
    17:00 +29°C° 0 mm 5 mps 743 mmHg 48%
    18:00 +27°C° 0 mm 4 mps 743 mmHg 54%
    19:00 +26°C° 0 mm 4 mps 743 mmHg 60%
    20:00 +25°C° 0 mm 5 mps 743 mmHg 63%
    21:00 +23°C° 0 mm 5 mps 742 mmHg 65%
    22:00 +22°C° 0 mm 6 mps 742 mmHg 68%
    23:00 +22°C° 0 mm 6 mps 742 mmHg 70%

    1 July, Monday

    Time Temperature Precipitation Wind Pressure Humidity
    00:00 +22°C° 0 mm 6 mps 742 mmHg 72%
    01:00 +21°C° 0 mm 6 mps 742 mmHg 74%
    02:00 +21°C° 0 mm 5 mps 742 mmHg 77%
    03:00 +20°C° 0 mm 5 mps 742 mmHg 79%
    04:00 +20°C° 0 mm 5 mps 742 mmHg 81%
    05:00 +21°C° 0 mm 4 mps 742 mmHg 78%
    06:00 +22°C° 0 mm 3 mps 742 mmHg 75%
    07:00 +24°C° 0 mm 3 mps 742 mmHg 72%
    08:00 +25°C° 0 mm 3 mps 742 mmHg 67%
    09:00 +26°C° 0 mm 3 mps 742 mmHg 63%
    10:00 +27°C° 0 mm 4 mps 743 mmHg 58%
    11:00 +28°C° 0 mm 4 mps 742 mmHg 57%
    12:00 +28°C° 0 mm 4 mps 742 mmHg 55%
    13:00 +29°C° 0 mm 4 mps 742 mmHg 54%
    14:00 +29°C° 0 mm 4 mps 741 mmHg 55%
    15:00 +28°C° 0 mm 4 mps 740 mmHg 56%
    16:00 +28°C° 0 mm 3 mps 740 mmHg 57%
    17:00 +27°C° 0.5 mm 2 mps 740 mmHg 64%
    18:00 +26°C° 0.5 mm 2 mps 740 mmHg 70%
    19:00 +24°C° 0.5 mm 1 mps 740 mmHg 77%
    20:00 +23°C° 1.2 mm 1 mps 740 mmHg 82%
    21:00 +21°C° 1.2 mm 2 mps 740 mmHg 86%
    22:00 +20°C° 1.2 mm 3 mps 740 mmHg 91%
    23:00 +19°C° 0.5 mm 3 mps 740 mmHg 90%
    Show more